Bradford, PA

5:02 AM EDT on September 24, 2017 (GMT -0400)
Bradford Regional

Weather History for KBFD - April, 2014

Change the Weather History Date:

Thursday, April 10, 2014

  Actual Average Record
Temperature  
Mean Temperature 45 °F 42 °F  
Max Temperature 64 °F 53 °F 75 °F (2017)
Min Temperature 25 °F 31 °F 9 °F (1985)
Degree Days  
Heating Degree Days 20 18  
Month to date heating degree days 242 198  
Since 1 July heating degree days 7085 6805  
Cooling Degree Days 0 0  
Month to date cooling degree days 0 0  
Year to date cooling degree days 0 0  
Moisture  
Dew Point 25 °F    
Average Humidity 49    
Maximum Humidity 75    
Minimum Humidity 23    
Precipitation  
Precipitation T in 0.12 in 1.38 in (1990)
Month to date precipitation 1.85 1.21  
Year to date precipitation 7.38 10.22  
Sea Level Pressure  
Sea Level Pressure 29.95 in    
Wind  
Wind Speed 12 mph (SSW)    
Max Wind Speed 23 mph    
Max Gust Speed 35 mph    
Visibility 10 miles    
Events      
T = Trace of Precipitation, MM = Missing Value Source: NWS Daily Summary

Daily Weather History Graph

Daily Weather History Graph

Search for Another Location

Airport or City:

Trip Planner

Search our weather history database for the weather conditions in past years. The results will help you decide how hot, cold, wet, or windy it might be!

Date:

Astronomy

Apr. 10, 2014 Rise Set
Actual Time 6:42 AM EDT 7:49 PM EDT
Civil Twilight 6:13 AM EDT 8:18 PM EDT
Nautical Twilight 5:39 AM EDT 8:52 PM EDT
Astronomical Twilight 5:04 AM EDT 9:28 PM EDT
Moon 3:28 PM EDT (4/10) 4:08 AM EDT (4/10)
Length of Visible Light 14h 04m
Length of Day
13h 07m
Waxing Gibbous, 79% of the Moon is Illuminated
Apr 10
Waxing Gibbous
Apr 15
Full
Apr 22
Last Quarter
Apr 29
New
May 6
First Quarter

Hourly Weather History & Observations

Time (EDT) Temp. Windchill Dew Point Humidity Pressure Visibility Wind Dir Wind Speed Gust Speed Precip Events Conditions
12:53 AM 28.0 °F - 21.0 °F 75% 30.04 in 10.0 mi Calm Calm - N/A   Clear
1:53 AM 26.1 °F 21.9 °F 19.0 °F 75% 30.03 in 10.0 mi SE 3.5 mph - N/A   Clear
2:53 AM 33.1 °F 30.0 °F 21.0 °F 61% 30.01 in 10.0 mi South 3.5 mph - N/A   Clear
3:53 AM 34.0 °F 31.0 °F 21.0 °F 59% 30.02 in 10.0 mi SSW 3.5 mph - N/A   Clear
4:53 AM 35.1 °F 30.1 °F 21.9 °F 59% 30.02 in 10.0 mi South 5.8 mph - N/A   Clear
5:53 AM 35.1 °F 30.1 °F 21.0 °F 57% 30.04 in 10.0 mi South 5.8 mph - N/A   Clear
6:53 AM 36.0 °F 29.6 °F 21.0 °F 55% 30.05 in 10.0 mi South 8.1 mph - N/A   Clear
7:53 AM 37.9 °F 32.1 °F 21.9 °F 53% 30.07 in 10.0 mi South 8.1 mph - N/A   Clear
8:53 AM 43.0 °F 36.8 °F 24.1 °F 47% 30.06 in 10.0 mi SW 11.5 mph 17.3 mph N/A   Clear
9:53 AM 48.0 °F - 26.1 °F 42% 30.04 in 10.0 mi SW 12.7 mph 21.9 mph N/A   Clear
10:53 AM 53.1 °F - 28.0 °F 38% 30.02 in 10.0 mi SSW 19.6 mph 29.9 mph N/A   Clear
11:53 AM 57.0 °F - 28.0 °F 33% 29.99 in 10.0 mi SW 12.7 mph 29.9 mph N/A   Clear
12:53 PM 59.0 °F - 25.0 °F 27% 29.96 in 10.0 mi SSW 20.7 mph 31.1 mph N/A   Clear
1:53 PM 61.0 °F - 23.0 °F 23% 29.94 in 10.0 mi SW 21.9 mph 33.4 mph N/A   Clear
2:53 PM 62.1 °F - 26.1 °F 25% 29.91 in 10.0 mi South 18.4 mph 27.6 mph N/A   Clear
3:53 PM 63.0 °F - 26.1 °F 25% 29.87 in 10.0 mi SW 16.1 mph 27.6 mph N/A   Clear
4:53 PM 63.0 °F - 26.1 °F 25% 29.84 in 10.0 mi SW 17.3 mph 29.9 mph N/A   Clear
5:53 PM 63.0 °F - 27.0 °F 26% 29.83 in 10.0 mi SSW 10.4 mph 23.0 mph N/A   Overcast
6:53 PM 62.1 °F - 25.0 °F 24% 29.84 in 10.0 mi SSW 12.7 mph 25.3 mph N/A   Scattered Clouds
7:53 PM 61.0 °F - 26.1 °F 26% 29.85 in 10.0 mi SSW 10.4 mph - 0.00 in   Overcast
8:53 PM 60.1 °F - 27.0 °F 28% 29.86 in 10.0 mi SSW 9.2 mph - N/A   Overcast
9:53 PM 61.0 °F - 27.0 °F 27% 29.86 in 10.0 mi South 11.5 mph 21.9 mph N/A   Overcast
10:53 PM 61.0 °F - 28.0 °F 29% 29.84 in 10.0 mi SSW 8.1 mph - N/A   Overcast
11:53 PM 61.0 °F - 30.9 °F 32% 29.84 in 10.0 mi WSW 9.2 mph 19.6 mph N/A   Overcast